|
NORAD ID: 32053 Int'l Code: 2007-038B
Perigee: -6,371.0 km
Apogee: -6,371.0 km
Inclination: 0.0 °
Period: 0.0 minutes
Semi major axis: 0 km
Launch date: September 11, 2007
Source: Commonwealth of Independent States (former USSR) (CIS)
Note: This is a ROCKET BODY
Two Line Element Set (TLE):
1 32053U 07038B 13166.18320543 .00000243 00000-0 23359-3 0 3273
2 32053 082.9790 101.6632 0026531 173.9223 297.8420 13.76053093289281
Source:
NASA's NSSDC Master Catalog entry for SL-8 R/B
|